This is the latest recevied weather packets stored in our database for station/object N7NIP. If no packets are shown the sender has not sent any weather packets the latest 10 day(s).
| Time | Temp. | Humidity | Pressure | Rain* | Wind** | Luminosity | Snow |
|---|---|---|---|---|---|---|---|
| 1778101342 | 15.56° C | 76% | 1034.8 hPa | 0 mm | - | 478 W/m² | - |
| 1778101039 | 15.56° C | 77% | 1034.6 hPa | 0 mm | - | 805 W/m² | - |
| 1778100734 | 15° C | 80% | 1034.6 hPa | 0 mm | - | 451 W/m² | - |
| 1778100432 | 14.44° C | 80% | 1034.6 hPa | 0 mm | - | 435 W/m² | - |
| 1778100129 | 13.89° C | 80% | 1034.5 hPa | 0 mm | - | 244 W/m² | - |
| 1778099827 | 13.89° C | 82% | 1034.8 hPa | 0 mm | - | 238 W/m² | - |
| 1778099523 | 13.89° C | 82% | 1034.7 hPa | 0 mm | - | 268 W/m² | - |
| 1778099221 | 13.89° C | 82% | 1034.6 hPa | 0 mm | - | 369 W/m² | - |
| 1778098917 | 13.89° C | 85% | 1034.7 hPa | 0 mm | - | 294 W/m² | - |
| 1778098614 | 13.33° C | 86% | 1034.6 hPa | 0 mm | - | 351 W/m² | - |
| 1778098310 | 13.33° C | 86% | 1034.6 hPa | 0 mm | - | 266 W/m² | - |
| 1778098007 | 12.78° C | 87% | 1034.7 hPa | 0 mm | - | 199 W/m² | - |
| 1778097704 | 12.78° C | 87% | 1034.7 hPa | 0 mm | - | 209 W/m² | - |
| 1778097401 | 12.78° C | 88% | 1034.9 hPa | 0 mm | - | 242 W/m² | - |
| 1778097097 | 12.78° C | 87% | 1034.8 hPa | 0 mm | - | 228 W/m² | - |
| 1778096795 | 12.78° C | 87% | 1034.5 hPa | 0 mm | - | 230 W/m² | - |
| 1778096491 | 13.33° C | 87% | 1034.5 hPa | 0 mm | - | 174 W/m² | - |
| 1778096189 | 13.33° C | 87% | 1034.6 hPa | 0 mm | - | 178 W/m² | - |
| 1778095886 | 13.33° C | 86% | 1034.4 hPa | 0 mm | - | 228 W/m² | - |
| 1778095582 | 13.33° C | 88% | 1034.3 hPa | 0 mm | - | 259 W/m² | - |
| 1778095278 | 13.33° C | 89% | 1034.4 hPa | 0 mm | - | 260 W/m² | - |
| 1778094975 | 12.78° C | 89% | 1034.4 hPa | 0 mm | - | 218 W/m² | - |
| 1778094671 | 12.78° C | 89% | 1034.6 hPa | 0 mm | - | 227 W/m² | - |
| 1778094369 | 12.78° C | 90% | 1034.4 hPa | 0 mm | - | 195 W/m² | - |
| 1778094065 | 12.78° C | 88% | 1034.4 hPa | 0 mm | - | 161 W/m² | - |
* Rain latest hour (hover to see other rain measurements)
** Current wind speed in m/s (hover to see current wind gust speed)